Location: Mahannah Oil Field
(37.4664°N, 96.6003°W)
Time: 07:46:20
(UTC+00:00)

Transit 2A Rocket - Pass Details

Date: 23 January 2021
Orbit: 594 x 909 km, 66.7° (Epoch: 25 February)

Event Time Altitude Azimuth Distance (km) Brightness Sun altitude
Rises 19:58:38 0° 252° (WSW) 3,334 8.8 30.2°
Reaches altitude 10° 20:02:06 10° 273° (W) 2,339 7.9 30.0°
Maximum altitude 20:05:22 16° 311° (NW) 1,882 7.0 29.7°
Drops below altitude 10° 20:08:30 10° 350° (N) 2,213 7.0 29.5°
Sets 20:11:39 0° 12° (NNE) 3,069 7.6 29.2°
